Philadelphia, PA

2:21 PM EST on February 23, 2018 (GMT -0500)
Philadelphia International

Weather History for KPHL - March, 2014

Change the Weather History Date:

Tuesday, March 11, 2014

  Actual Average Record
Temperature  
Mean Temperature 52 °F 42 °F  
Max Temperature 65 °F 51 °F 72 °F (1977)
Min Temperature 38 °F 33 °F 12 °F (1960)
Degree Days  
Heating Degree Days 13 23  
Month to date heating degree days 322 270  
Since 1 July heating degree days 3978 3752  
Cooling Degree Days 0 0  
Month to date cooling degree days 0 0  
Year to date cooling degree days 0 0  
Moisture  
Dew Point 33 °F    
Average Humidity 52    
Maximum Humidity 70    
Minimum Humidity 34    
Precipitation  
Precipitation 0.00 in 0.11 in 1.69 in (1952)
Month to date precipitation 0.39 1.21  
Year to date precipitation 9.06 6.89  
Snow  
Snow 0.00 in 0.10 in 3.50 in (1937)
Month to date snowfall 3.4 1.6  
Since 1 July snowfall 62.9 20.6  
Snow Depth 0.00 in    
Sea Level Pressure  
Sea Level Pressure 29.67 in    
Wind  
Wind Speed 7 mph (SW)    
Max Wind Speed 16 mph    
Max Gust Speed 21 mph    
Visibility 10 miles    
Events      
T = Trace of Precipitation, MM = Missing Value Source: NWS Daily Summary

Daily Weather History Graph

Daily Weather History Graph

Search for Another Location

Airport or City:

Trip Planner

Search our weather history database for the weather conditions in past years. The results will help you decide how hot, cold, wet, or windy it might be!

Date:

Astronomy

Mar. 11, 2014 Rise Set
Actual Time 7:18 AM EDT 7:03 PM EDT
Civil Twilight 6:51 AM EDT 7:30 PM EDT
Nautical Twilight 6:20 AM EDT 8:01 PM EDT
Astronomical Twilight 5:49 AM EDT 8:33 PM EDT
Moon 2:38 PM EDT (3/11) 4:10 AM EDT (3/11)
Length of Visible Light 12h 38m
Length of Day
11h 44m
Waxing Gibbous, 78% of the Moon is Illuminated
Mar 11
Waxing Gibbous
Mar 16
Full
Mar 23
Last Quarter
Mar 30
New
Apr 7
First Quarter

Hourly Weather History & Observations

Time (EDT) Temp. Windchill Dew Point Humidity Pressure Visibility Wind Dir Wind Speed Gust Speed Precip Events Conditions
12:54 AM 43.0 °F 40.3 °F 28.0 °F 56% 29.63 in 10.0 mi WSW 4.6 mph - N/A   Scattered Clouds
1:54 AM 39.9 °F 34.5 °F 28.9 °F 65% 29.63 in 10.0 mi WSW 8.1 mph - N/A   Partly Cloudy
2:54 AM 39.0 °F 33.4 °F 28.9 °F 67% 29.63 in 10.0 mi WSW 8.1 mph - N/A   Mostly Cloudy
3:54 AM 44.1 °F 38.6 °F 30.0 °F 58% 29.62 in 10.0 mi SW 10.4 mph - N/A   Mostly Cloudy
4:54 AM 39.9 °F 33.9 °F 30.0 °F 68% 29.62 in 10.0 mi WSW 9.2 mph - N/A   Mostly Cloudy
5:54 AM 39.0 °F 33.4 °F 30.0 °F 70% 29.65 in 10.0 mi WSW 8.1 mph - N/A   Scattered Clouds
6:54 AM 42.1 °F 40.2 °F 30.9 °F 65% 29.66 in 10.0 mi WSW 3.5 mph - N/A   Scattered Clouds
7:54 AM 42.1 °F - 30.9 °F 65% 29.68 in 10.0 mi Calm Calm - N/A   Mostly Cloudy
8:54 AM 45.0 °F 42.6 °F 32.0 °F 60% 29.68 in 10.0 mi South 4.6 mph - N/A   Mostly Cloudy
9:54 AM 48.9 °F - 33.1 °F 54% 29.71 in 10.0 mi WSW 8.1 mph - N/A   Mostly Cloudy
10:54 AM 52.0 °F - 33.1 °F 49% 29.71 in 10.0 mi WSW 9.2 mph - N/A   Mostly Cloudy
11:54 AM 55.9 °F - 33.1 °F 42% 29.70 in 10.0 mi WSW 6.9 mph - N/A   Mostly Cloudy
12:54 PM 60.1 °F - 35.1 °F 39% 29.70 in 10.0 mi SW 10.4 mph - N/A   Mostly Cloudy
1:54 PM 63.0 °F - 35.1 °F 35% 29.67 in 10.0 mi WSW 12.7 mph - N/A   Mostly Cloudy
2:54 PM 63.0 °F - 35.1 °F 35% 29.66 in 10.0 mi WSW 12.7 mph - N/A   Mostly Cloudy
3:54 PM 64.0 °F - 35.1 °F 34% 29.66 in 10.0 mi WSW 11.5 mph - N/A   Mostly Cloudy
4:54 PM 64.0 °F - 35.1 °F 34% 29.66 in 10.0 mi WSW 9.2 mph - N/A   Mostly Cloudy
5:54 PM 63.0 °F - 36.0 °F 37% 29.66 in 10.0 mi WSW 8.1 mph - N/A   Mostly Cloudy
6:54 PM 62.1 °F - 36.0 °F 38% 29.68 in 10.0 mi SW 6.9 mph - N/A   Mostly Cloudy
7:54 PM 54.0 °F - 37.0 °F 53% 29.69 in 10.0 mi ESE 3.5 mph - N/A   Mostly Cloudy
8:54 PM 51.1 °F - 37.0 °F 59% 29.70 in 10.0 mi ESE 4.6 mph - N/A   Mostly Cloudy
9:54 PM 50.0 °F - 36.0 °F 59% 29.70 in 10.0 mi SE 4.6 mph - N/A   Mostly Cloudy
10:54 PM 52.0 °F - 37.0 °F 57% 29.70 in 10.0 mi SW 4.6 mph - N/A   Partly Cloudy
11:54 PM 48.9 °F - 36.0 °F 61% 29.69 in 10.0 mi Calm Calm - N/A   Scattered Clouds